Year,Month,Day,Hour,Minute,Value (Times are PST for temperature in C)
2014,12,14,09,04,4.60
2014,12,14,09,05,4.60
2014,12,14,09,06,4.70
2014,12,14,09,07,4.70
2014,12,14,09,08,4.70
2014,12,14,09,09,4.70
2014,12,14,09,10,4.70
2014,12,14,09,11,4.70
2014,12,14,09,12,4.70
2014,12,14,09,13,4.80
2014,12,14,09,14,4.80
2014,12,14,09,15,4.80
2014,12,14,09,16,4.80
2014,12,14,09,17,4.90
2014,12,14,09,18,4.90
2014,12,14,09,19,4.90
2014,12,14,09,20,4.90
2014,12,14,09,21,4.90
2014,12,14,09,22,4.90
2014,12,14,09,23,5.00
2014,12,14,09,24,5.10
2014,12,14,09,25,5.10
2014,12,14,09,26,5.10
2014,12,14,09,27,5.10
2014,12,14,09,28,5.10
2014,12,14,09,29,5.20
2014,12,14,09,30,5.20
2014,12,14,09,31,5.20
2014,12,14,09,32,5.20
2014,12,14,09,33,5.20
2014,12,14,09,34,5.20
2014,12,14,09,35,5.20
2014,12,14,09,36,5.20
2014,12,14,09,37,5.30
2014,12,14,09,38,5.30
2014,12,14,09,39,5.30
2014,12,14,09,40,5.30
2014,12,14,09,41,5.30
2014,12,14,09,42,5.30
2014,12,14,09,43,5.30
2014,12,14,09,44,5.40
2014,12,14,09,45,5.40
2014,12,14,09,46,5.40
2014,12,14,09,47,5.50
2014,12,14,09,48,5.50
2014,12,14,09,49,5.50
2014,12,14,09,50,5.60
2014,12,14,09,51,5.60
2014,12,14,09,52,5.60
2014,12,14,09,53,5.70
2014,12,14,09,54,5.70
2014,12,14,09,55,5.70
2014,12,14,09,56,5.70
2014,12,14,09,57,5.70
2014,12,14,09,58,5.70
2014,12,14,09,59,5.70
2014,12,14,10,00,5.70
2014,12,14,10,01,5.70
2014,12,14,10,02,5.70
2014,12,14,10,03,5.80
2014,12,14,10,04,5.80
2014,12,14,10,05,5.80
2014,12,14,10,06,5.80
2014,12,14,10,07,5.90
2014,12,14,10,08,5.90
2014,12,14,10,09,5.90
2014,12,14,10,10,5.90
2014,12,14,10,11,6.00
2014,12,14,10,12,6.00
2014,12,14,10,13,6.00
2014,12,14,10,14,6.10
2014,12,14,10,15,6.10
2014,12,14,10,16,6.10
2014,12,14,10,17,6.10
2014,12,14,10,18,6.10
2014,12,14,10,19,6.20
2014,12,14,10,20,6.20
2014,12,14,10,21,6.20
2014,12,14,10,22,6.20
2014,12,14,10,23,6.30
2014,12,14,10,24,6.30
2014,12,14,10,25,6.40
2014,12,14,10,26,6.40
2014,12,14,10,27,6.40
2014,12,14,10,28,6.40
2014,12,14,10,29,6.40
2014,12,14,10,30,6.50
2014,12,14,10,31,6.60
2014,12,14,10,32,6.50
2014,12,14,10,33,6.40
2014,12,14,10,34,6.60
2014,12,14,10,35,6.60
2014,12,14,10,36,6.60
2014,12,14,10,37,6.60
2014,12,14,10,38,6.60
2014,12,14,10,39,6.50
2014,12,14,10,40,6.40
2014,12,14,10,41,6.40
2014,12,14,10,42,6.40
2014,12,14,10,43,6.40
2014,12,14,10,44,6.40
2014,12,14,10,45,6.40
2014,12,14,10,46,6.40
2014,12,14,10,47,6.40
2014,12,14,10,48,6.40
2014,12,14,10,49,6.40
2014,12,14,10,50,6.40
2014,12,14,10,51,6.40
2014,12,14,10,52,6.40
2014,12,14,10,53,6.40
2014,12,14,10,54,6.40
2014,12,14,10,55,6.40
2014,12,14,10,56,6.60
2014,12,14,10,57,6.60
2014,12,14,10,58,6.60
2014,12,14,10,59,6.60
2014,12,14,11,00,6.60
2014,12,14,11,01,6.60
2014,12,14,11,02,6.60
2014,12,14,11,03,6.60
2014,12,14,11,04,6.60
2014,12,14,11,05,6.60
2014,12,14,11,06,6.70
2014,12,14,11,07,6.70
2014,12,14,11,08,6.70
2014,12,14,11,09,6.80
2014,12,14,11,10,6.80
2014,12,14,11,11,6.80
2014,12,14,11,12,6.80
2014,12,14,11,13,6.80
2014,12,14,11,14,6.80
2014,12,14,11,15,6.90
2014,12,14,11,16,6.90
2014,12,14,11,17,6.90
2014,12,14,11,18,6.90
2014,12,14,11,19,6.90
2014,12,14,11,20,6.80
2014,12,14,11,21,6.80
2014,12,14,11,22,6.80
2014,12,14,11,23,6.80
2014,12,14,11,24,6.90
2014,12,14,11,25,6.90
2014,12,14,11,26,7.00
2014,12,14,11,27,7.00
2014,12,14,11,28,7.00
2014,12,14,11,29,7.00
2014,12,14,11,30,7.10
2014,12,14,11,31,7.10
2014,12,14,11,32,7.10
2014,12,14,11,33,7.10
2014,12,14,11,34,7.10
2014,12,14,11,35,7.10
2014,12,14,11,36,7.10
2014,12,14,11,37,7.10
2014,12,14,11,38,7.10
2014,12,14,11,39,7.10
2014,12,14,11,40,7.00
2014,12,14,11,41,7.10
2014,12,14,11,42,7.10
2014,12,14,11,43,7.10
2014,12,14,11,44,7.10
2014,12,14,11,45,7.10
2014,12,14,11,46,7.10
2014,12,14,11,47,7.10
2014,12,14,11,48,7.20
2014,12,14,11,49,7.20
2014,12,14,11,50,7.20
2014,12,14,11,51,7.30
2014,12,14,11,52,7.30
2014,12,14,11,53,7.30
2014,12,14,11,54,7.30
2014,12,14,11,55,7.30
2014,12,14,11,56,7.30
2014,12,14,11,57,7.30
2014,12,14,11,58,7.30
2014,12,14,11,59,7.30
2014,12,14,12,00,7.30
2014,12,14,12,01,7.30
2014,12,14,12,02,7.30
2014,12,14,12,03,7.30
2014,12,14,12,04,7.30
2014,12,14,12,05,7.30
2014,12,14,12,06,7.30
2014,12,14,12,07,7.30
2014,12,14,12,08,7.30
2014,12,14,12,09,7.40
2014,12,14,12,10,7.40
2014,12,14,12,11,7.40
2014,12,14,12,12,7.50
2014,12,14,12,13,7.50
2014,12,14,12,14,7.60
2014,12,14,12,15,7.60
2014,12,14,12,16,7.60
2014,12,14,12,17,7.60
2014,12,14,12,18,7.50
2014,12,14,12,19,7.50
2014,12,14,12,20,7.60
2014,12,14,12,21,7.60
2014,12,14,12,22,7.60
2014,12,14,12,23,7.60
2014,12,14,12,24,7.70
2014,12,14,12,25,7.70
2014,12,14,12,26,7.80
2014,12,14,12,27,7.80
2014,12,14,12,28,7.80
2014,12,14,12,29,7.80
2014,12,14,12,30,7.90
2014,12,14,12,31,7.90
2014,12,14,12,32,8.00
2014,12,14,12,33,8.00
2014,12,14,12,34,8.00
2014,12,14,12,35,8.00
2014,12,14,12,36,7.90
2014,12,14,12,37,7.90
2014,12,14,12,38,7.90
2014,12,14,12,39,7.80
2014,12,14,12,40,7.80
2014,12,14,12,41,7.80
2014,12,14,12,42,7.80
2014,12,14,12,43,7.80
2014,12,14,12,44,7.80
2014,12,14,12,45,7.80
2014,12,14,12,46,7.80
2014,12,14,12,47,7.90
2014,12,14,12,48,7.90
2014,12,14,12,49,7.90
2014,12,14,12,50,7.90
2014,12,14,12,51,7.90
2014,12,14,12,52,7.90
2014,12,14,12,53,7.90
2014,12,14,12,54,7.90
2014,12,14,12,55,7.90
2014,12,14,12,56,7.90
2014,12,14,12,57,8.00
2014,12,14,12,58,8.00
2014,12,14,12,59,8.10
2014,12,14,13,00,8.10
2014,12,14,13,01,8.20
2014,12,14,13,02,8.10
2014,12,14,13,03,8.10
2014,12,14,13,04,8.10
2014,12,14,13,05,8.10
2014,12,14,13,06,8.00
2014,12,14,13,07,8.00
2014,12,14,13,08,8.00
2014,12,14,13,09,8.00
2014,12,14,13,10,8.00
2014,12,14,13,11,8.00
2014,12,14,13,12,8.00
2014,12,14,13,13,8.00
2014,12,14,13,14,8.10
2014,12,14,13,15,8.10
2014,12,14,13,16,8.20
2014,12,14,13,17,8.20
2014,12,14,13,18,8.20
2014,12,14,13,19,8.20
2014,12,14,13,20,8.20
2014,12,14,13,21,8.20
2014,12,14,13,22,8.20
2014,12,14,13,23,8.30
2014,12,14,13,24,8.30
2014,12,14,13,25,8.30
2014,12,14,13,26,8.30
2014,12,14,13,27,8.30
2014,12,14,13,28,8.30
2014,12,14,13,29,8.30
2014,12,14,13,30,8.30
2014,12,14,13,31,8.30
2014,12,14,13,32,8.40
2014,12,14,13,33,8.40
2014,12,14,13,34,8.40
2014,12,14,13,35,8.50
2014,12,14,13,36,8.50
2014,12,14,13,37,8.50
2014,12,14,13,38,8.50
2014,12,14,13,39,8.50
2014,12,14,13,40,8.50
2014,12,14,13,41,8.50
2014,12,14,13,42,8.50
2014,12,14,13,43,8.40
2014,12,14,13,44,8.40
2014,12,14,13,45,8.40
2014,12,14,13,46,8.40
2014,12,14,13,47,8.40
2014,12,14,13,48,8.40
2014,12,14,13,49,8.40
2014,12,14,13,50,8.40
2014,12,14,13,51,8.40
2014,12,14,13,52,8.40
2014,12,14,13,53,8.40
2014,12,14,13,54,8.40
2014,12,14,13,55,8.50
2014,12,14,13,56,8.60
2014,12,14,13,57,8.60
2014,12,14,13,58,8.60
2014,12,14,13,59,8.70
2014,12,14,14,00,8.70
2014,12,14,14,01,8.70
2014,12,14,14,02,8.70
2014,12,14,14,03,8.70
2014,12,14,14,04,8.70
2014,12,14,14,05,8.60
2014,12,14,14,06,8.60
2014,12,14,14,07,8.60
2014,12,14,14,08,8.50
2014,12,14,14,09,8.50
2014,12,14,14,10,8.50
2014,12,14,14,11,8.50
2014,12,14,14,12,8.50
2014,12,14,14,13,8.50
2014,12,14,14,14,8.40
2014,12,14,14,15,8.40
2014,12,14,14,16,8.40
2014,12,14,14,17,8.40
2014,12,14,14,18,8.40
2014,12,14,14,19,8.40
2014,12,14,14,20,8.50
2014,12,14,14,21,8.50
2014,12,14,14,22,8.50
2014,12,14,14,23,8.50
2014,12,14,14,24,8.60
2014,12,14,14,25,8.60
2014,12,14,14,26,8.50
2014,12,14,14,27,8.50
2014,12,14,14,28,8.50
2014,12,14,14,29,8.50
2014,12,14,14,30,8.50
2014,12,14,14,31,8.50
2014,12,14,14,32,8.50
2014,12,14,14,33,8.50
2014,12,14,14,34,8.50
2014,12,14,14,35,8.50
2014,12,14,14,36,8.60
2014,12,14,14,37,8.60
2014,12,14,14,38,8.60
2014,12,14,14,39,8.50
2014,12,14,14,40,8.50
2014,12,14,14,41,8.40
2014,12,14,14,42,8.40
2014,12,14,14,43,8.30
2014,12,14,14,44,8.30
2014,12,14,14,45,8.30
2014,12,14,14,46,8.20
2014,12,14,14,47,8.20
2014,12,14,14,48,8.20
2014,12,14,14,49,8.20
2014,12,14,14,50,8.20
2014,12,14,14,51,8.20
2014,12,14,14,52,8.20
2014,12,14,14,53,8.20
2014,12,14,14,54,8.10
2014,12,14,14,55,8.10
2014,12,14,14,56,8.10
2014,12,14,14,57,8.10
2014,12,14,14,58,8.10
2014,12,14,14,59,8.10
2014,12,14,15,00,8.10
2014,12,14,15,01,8.10
2014,12,14,15,02,8.00
2014,12,14,15,03,8.00
2014,12,14,15,04,8.00
2014,12,14,15,05,7.90
2014,12,14,15,06,7.90
2014,12,14,15,07,7.80
2014,12,14,15,08,7.80
2014,12,14,15,09,7.80
2014,12,14,15,10,7.80
2014,12,14,15,11,7.80
2014,12,14,15,12,7.80
2014,12,14,15,13,7.80
2014,12,14,15,14,7.80
2014,12,14,15,15,7.80
2014,12,14,15,16,7.80
2014,12,14,15,17,7.80
2014,12,14,15,18,7.80
2014,12,14,15,19,7.80
2014,12,14,15,20,7.80
2014,12,14,15,21,7.80
2014,12,14,15,22,7.80
2014,12,14,15,23,7.80
2014,12,14,15,24,7.80
2014,12,14,15,25,7.80
2014,12,14,15,26,7.80
2014,12,14,15,27,7.80
2014,12,14,15,28,7.80
2014,12,14,15,29,7.80
2014,12,14,15,30,7.80
2014,12,14,15,31,7.80
2014,12,14,15,32,7.80
2014,12,14,15,33,7.80
2014,12,14,15,34,7.80
2014,12,14,15,35,7.80
2014,12,14,15,36,7.80
2014,12,14,15,37,7.80
2014,12,14,15,38,7.80
2014,12,14,15,39,7.80
2014,12,14,15,40,7.70
2014,12,14,15,41,7.70
2014,12,14,15,42,7.70
2014,12,14,15,43,7.70
2014,12,14,15,44,7.70
2014,12,14,15,45,7.80
2014,12,14,15,46,7.80
2014,12,14,15,47,7.80
2014,12,14,15,48,7.80
2014,12,14,15,49,7.80
2014,12,14,15,50,7.80
2014,12,14,15,51,7.80
2014,12,14,15,52,7.80
2014,12,14,15,53,7.80
2014,12,14,15,54,7.80
2014,12,14,15,55,7.80
2014,12,14,15,56,7.80
2014,12,14,15,57,7.70
2014,12,14,15,58,7.70
2014,12,14,15,59,7.70
2014,12,14,16,00,7.70
2014,12,14,16,01,7.60
2014,12,14,16,02,7.60
2014,12,14,16,03,7.60
2014,12,14,16,04,7.50
2014,12,14,16,05,7.50
2014,12,14,16,06,7.50
2014,12,14,16,07,7.40
2014,12,14,16,08,7.40
2014,12,14,16,09,7.40
2014,12,14,16,10,7.40
2014,12,14,16,11,7.40
2014,12,14,16,12,7.40
2014,12,14,16,13,7.40
2014,12,14,16,14,7.40
2014,12,14,16,15,7.40
2014,12,14,16,16,7.40
2014,12,14,16,17,7.40
2014,12,14,16,18,7.40
2014,12,14,16,19,7.40
